Temperature
7 7 7 7 7 7 7 8 8 8 8 9 9 9 9 9 9 8 8 8 8 8 8 8 7 7 7 7 6 6 4 4 3 3 3 3 3 2 2 2 2 2 2
6 6 6 7 7 7 7 7 7 7 7 8 8 8 8 8 8 8 7 7 7 7 7 7 7 7 6 6 5 4 3 3 3 3 3 2 2 2 1 1 1 1 0
5 5 5 6 6 6 6 6 6 7 7 7 7 7 7 7 7 7 7 6 6 6 6 6 5 5 5 4 3 3 2 2 2 2 2 2 1 1 1 0 -0 -1 -1
4 4 4 5 5 5 5 5 5 6 6 6 6 6 6 6 6 6 6 6 5 5 5 4 4 3 3 2 2 1 1 2 2 1 1 1 0 -0 -1 -1 -2 -2 -3
3 3 3 4 4 4 4 4 5 5 5 5 5 5 5 5 5 5 4 4 4 3 3 2 2 1 1 1 1 1 1 1 1 0 -0 -0 -1 -2 -3 -4 -4 -4 -4
2 3 3 3 3 3 3 4 4 4 4 4 4 4 4 3 3 3 3 2 2 1 1 0 0 -0 -0 -0 -0 0 -0 -0 -1 -1 -2 -3 -4 -5 -5 -6 -5 -5 -5
2 2 2 2 3 3 3 3 3 3 2 2 2 2 2 1 1 1 1 1 0 -0 -0 -0 -1 -0 -1 -1 -1 -1 -2 -2 -3 -3 -4 -4 -5 -6 -6 -6 -6 -6 -6
1 1 1 1 2 2 2 2 1 1 1 1 1 0 0 -0 -0 0 0 -0 -0 -0 -1 -1 -1 -1 -1 -2 -2 -2 -3 -3 -4 -5 -5 -5 -6 -6 -6 -6 -6 -6 -5
1 1 1 1 1 1 1 1 0 0 0 0 -0 -0 -0 -0 -1 -1 -1 -1 -1 -1 -1 -2 -2 -2 -2 -3 -3 -4 -4 -5 -6 -6 -6 -6 -6 -6 -6 -7 -7 -7 -6
1 1 1 1 1 1 1 0 0 0 -0 -0 -0 -0 -0 -1 -1 -1 -1 -1 -2 -2 -3 -3 -3 -4 -4 -4 -5 -5 -6 -7 -7 -7 -6 -6 -6 -6 -7 -7 -7 -7 -7
1 1 1 1 1 1 0 0 -0 -0 -0 -0 -1 -1 -1 -1 -2 -2 -2 -3 -3 -4 -4 -4 -4 -5 -5 -5 -6 -6 -7 -7 -6 -6 -6 -6 -6 -7 -7 -7 -7 -7 -7
1 1 1 1 1 0 0 0 -0 -1 -1 -1 -1 -1 -2 -2 -3 -3 -3 -4 -4 -5 -5 -6 -6 -6 -6 -6 -6 -6 -6 -6 -6 -6 -6 -6 -6 -7 -7 -7 -7 -7 -7
1 1 1 1 1 0 0 -0 -0 -1 -1 -1 -2 -2 -3 -3 -4 -4 -5 -5 -5 -6 -6 -6 -7 -7 -6 -6 -6 -6 -6 -6 -6 -6 -6 -7 -7 -7 -7 -7 -7 -7 -6
1 1 1 1 1 0 0 -0 -0 -1 -1 -2 -2 -3 -3 -4 -5 -5 -5 -6 -6 -7 -7 -7 -7 -7 -7 -7 -7 -7 -7 -7 -7 -7 -7 -7 -7 -7 -7 -7 -7 -7 -6
1 1 1 1 1 0 0 -0 -1 -1 -2 -2 -3 -3 -4 -4 -5 -5 -6 -6 -6 -7 -7 -7 -7 -7 -7 -7 -7 -7 -7 -7 -7 -7 -7 -7 -7 -7 -7 -7 -7 -7 -7
2 1 1 1 0 0 -0 -0 -1 -1 -2 -3 -3 -4 -4 -5 -5 -6 -6 -7 -7 -7 -7 -7 -8 -8 -8 -8 -8 -7 -7 -7 -7 -7 -7 -7 -7 -7 -7 -7 -7 -7 -7
2 1 1 0 0 -0 -0 -1 -1 -2 -2 -3 -3 -4 -5 -5 -6 -7 -7 -7 -7 -8 -8 -8 -8 -8 -8 -8 -8 -8 -8 -8 -8 -8 -8 -8 -8 -8 -8 -7 -8 -8 -8
1 1 1 0 0 -0 -1 -1 -2 -2 -3 -3 -4 -5 -5 -6 -7 -7 -7 -8 -8 -8 -8 -8 -8 -8 -8 -8 -8 -8 -8 -8 -8 -8 -8 -8 -8 -8 -8 -8 -8 -8 -8
1 1 0 0 -0 -1 -1 -2 -2 -3 -3 -4 -5 -5 -6 -7 -7 -7 -8 -8 -8 -8 -8 -8 -8 -8 -8 -8 -8 -8 -8 -8 -8 -8 -8 -8 -8 -8 -8 -8 -8 -9 -9
1 1 0 -0 -1 -1 -1 -2 -2 -3 -3 -4 -5 -6 -7 -7 -8 -8 -9 -9 -9 -9 -8 -8 -8 -8 -8 -8 -8 -8 -8 -8 -8 -8 -8 -8 -8 -9 -9 -9 -9 -9 -9
1 0 -0 -0 -1 -1 -2 -2 -3 -3 -4 -4 -5 -6 -7 -7 -8 -8 -9 -9 -9 -9 -9 -8 -8 -8 -8 -8 -8 -8 -8 -8 -8 -8 -8 -8 -8 -9 -9 -9 -9 -9 -9
0 -0 -1 -1 -1 -1 -2 -2 -3 -3 -4 -5 -5 -6 -7 -8 -8 -8 -8 -9 -9 -9 -8 -8 -8 -8 -8 -8 -8 -8 -8 -8 -8 -8 -8 -8 -9 -9 -9 -9 -9 -9 -9
-1 -1 -1 -1 -1 -2 -2 -2 -3 -3 -4 -5 -6 -6 -7 -7 -8 -8 -8 -8 -8 -8 -8 -8 -8 -7 -8 -8 -8 -8 -8 -8 -8 -8 -9 -9 -9 -9 -9 -9 -9 -9 -9
-1 -1 -1 -2 -2 -2 -2 -3 -3 -4 -4 -5 -5 -6 -7 -7 -7 -7 -8 -8 -8 -8 -8 -8 -7 -7 -7 -8 -8 -8 -8 -8 -8 -8 -9 -9 -9 -9 -9 -9 -9 -9 -9
-1 -1 -2 -2 -2 -2 -2 -3 -3 -4 -4 -5 -5 -6 -6 -7 -7 -7 -7 -7 -7 -7 -7 -7 -7 -7 -7 -7 -8 -8 -8 -8 -9 -9 -9 -9 -9 -9 -9 -9 -9 -9 -9
-2 -2 -2 -2 -2 -2 -3 -3 -3 -4 -4 -5 -5 -5 -6 -6 -6 -7 -7 -7 -7 -7 -7 -7 -7 -7 -7 -8 -8 -8 -8 -8 -9 -9 -9 -9 -9 -9 -9 -9 -9 -9 -8
Wind_Speed
9 8 8 8 8 8 6 7 7 6 6 5 5 3 2 1 1 2 2 3 4 3 3 5 5 5 5 4 4 4 3 4 4 3 2 2 3 4 4 5 8 10 12
8 8 8 9 9 9 8 8 8 8 8 7 7 6 5 5 4 3 3 3 3 4 4 5 5 5 6 5 5 5 4 3 4 5 3 4 4 4 4 5 8 10 11
7 7 8 9 9 9 9 9 9 8 8 9 9 9 8 7 7 6 6 6 5 5 5 6 6 7 6 5 5 5 4 3 3 4 3 2 3 3 4 5 7 8 10
7 7 8 8 9 9 9 9 10 10 10 10 10 10 10 9 9 8 8 8 8 7 7 6 6 6 6 6 5 5 4 4 4 3 3 2 3 3 3 4 4 4 4
7 7 8 8 8 8 8 9 10 10 10 9 10 10 10 9 8 9 9 9 9 9 8 7 6 7 8 5 5 5 4 3 3 2 2 2 2 2 3 3 3 2 3
7 7 7 7 8 8 8 9 10 10 10 10 10 10 10 9 12 13 11 9 8 8 8 7 7 6 6 7 7 6 5 3 3 2 1 2 2 2 1 0 1 2 4
6 7 7 7 8 8 9 10 10 10 10 10 10 10 11 12 15 15 15 10 9 8 7 6 6 7 7 5 4 3 1 1 2 2 1 1 1 0 1 1 2 4 5
6 7 7 7 8 8 9 9 9 9 9 9 10 10 11 13 16 16 16 10 9 8 7 6 5 4 4 3 1 1 1 2 1 1 1 1 1 1 1 2 4 5 6
6 7 7 7 7 8 9 8 8 8 9 8 8 9 10 10 14 14 12 6 6 5 4 3 3 2 2 3 2 1 2 3 2 1 4 6 9 10 9 3 3 4 6
5 6 6 6 7 7 7 7 7 7 8 7 8 7 7 6 10 10 8 3 3 2 1 2 4 4 4 5 4 3 3 3 4 5 6 7 7 8 10 5 4 4 4
5 5 6 6 6 6 6 5 5 6 6 6 5 4 4 5 7 8 8 4 3 2 2 2 3 4 5 6 5 3 4 3 3 4 4 4 4 3 3 2 2 4 5
4 5 5 4 4 4 5 4 4 4 4 3 4 3 2 3 5 6 7 7 6 4 3 3 3 5 6 7 5 5 7 6 3 3 3 3 3 3 3 4 6 8 9
5 5 5 4 3 3 3 3 2 2 2 2 2 2 1 1 2 4 4 5 5 3 2 3 4 6 7 6 6 6 5 3 3 3 3 3 3 4 4 4 6 10 12
6 5 4 4 4 4 4 4 3 3 3 2 2 2 0 1 2 3 4 4 5 4 4 4 7 7 6 6 5 4 3 3 3 3 4 4 4 4 5 4 5 6 7
6 5 4 4 4 5 5 4 5 4 4 3 2 2 2 2 2 4 4 3 3 4 5 4 4 3 3 3 3 3 3 4 3 3 3 5 6 6 6 5 5 5 8
6 5 4 3 4 4 4 4 5 4 5 5 4 3 2 2 3 5 6 7 8 8 5 4 4 3 3 3 4 4 4 4 4 4 4 5 7 8 8 8 7 8 10
6 6 5 4 4 3 3 4 2 1 2 1 1 2 3 4 4 5 6 8 9 8 4 4 3 4 4 4 4 4 5 5 4 5 5 7 7 8 9 9 9 9 10
7 7 6 4 4 4 3 2 1 1 2 2 3 3 3 5 6 6 7 6 5 5 3 3 4 4 4 4 5 5 5 6 5 6 6 7 7 8 9 10 9 10 11
7 5 5 4 4 4 3 2 1 1 2 2 2 3 4 5 7 8 6 3 4 4 4 4 4 5 5 5 5 6 6 7 7 7 7 8 8 8 10 10 10 15 14
6 8 7 5 4 3 3 3 2 2 2 3 3 2 1 2 3 4 3 3 4 4 5 5 5 5 5 6 6 6 7 7 8 8 8 8 8 9 11 12 11 11 11
6 6 8 5 4 4 3 3 3 2 3 3 3 3 4 2 4 4 4 4 4 5 5 5 5 6 6 6 6 7 8 8 8 9 9 9 9 10 10 11 12 12 12
6 6 5 5 4 4 4 3 3 3 3 4 3 4 7 4 4 4 4 4 5 5 5 5 6 6 6 6 7 7 8 10 10 9 10 10 9 10 11 11 12 12 13
6 6 6 5 4 5 5 3 3 3 4 4 4 3 3 3 4 4 5 5 5 5 6 6 6 7 9 11 11 8 10 11 11 10 11 11 11 11 11 12 14 15 15
6 7 6 5 5 5 4 4 4 4 4 4 4 4 4 4 4 5 5 5 5 5 8 9 9 9 13 14 15 15 16 18 17 14 13 13 13 13 13 14 15 17 17
7 7 6 6 6 5 5 5 4 4 4 4 4 4 4 4 5 5 6 6 6 6 8 11 12 13 15 17 18 18 21 24 24 20 16 13 15 15 16 17 17 18 18
7 7 6 5 5 5 5 5 5 5 4 4 4 4 5 5 6 6 6 6 6 6 7 10 13 16 18 18 20 21 23 24 25 26 21 13 15 15 16 16 19 18 19
Wind_Direction
346 340 339 340 340 339 339 342 341 342 349 354 355 0 13 45 105 145 157 155 166 152 140 151 148 137 138 134 131 135 137 135 150 153 153 153 164 181 211 245 258 261 264
342 345 353 357 356 358 1 359 3 11 14 17 24 32 41 48 57 78 98 108 127 132 128 129 135 133 129 129 132 133 131 120 142 156 167 172 189 198 213 235 252 257 259
348 1 8 8 6 7 7 9 16 24 29 34 40 43 45 48 53 60 72 76 82 95 112 126 131 132 130 127 125 125 121 108 95 133 144 160 189 204 214 235 246 254 262
6 19 18 14 13 12 17 25 28 33 39 44 49 50 51 52 57 62 69 73 75 76 80 94 109 124 129 127 122 119 118 110 100 112 127 167 198 203 200 227 250 251 265
22 28 24 21 23 25 31 38 39 40 45 48 54 54 53 55 63 73 76 80 82 82 78 79 89 110 126 124 127 126 126 121 127 143 170 185 201 204 211 214 239 280 286
34 34 33 34 36 37 42 48 50 48 48 52 57 60 61 65 75 81 84 78 80 82 80 71 75 79 101 109 124 134 147 147 163 171 181 207 235 230 189 122 3 322 298
43 42 43 46 48 47 53 58 59 57 58 59 62 67 69 72 76 80 81 77 75 71 69 66 64 59 54 49 68 81 87 237 207 169 201 258 286 73 90 329 283 267 262
52 48 47 52 57 56 59 61 61 62 63 63 63 64 69 70 75 79 81 75 74 70 65 63 69 66 57 40 30 59 320 294 262 174 164 280 315 292 240 251 258 277 274
59 56 53 57 64 64 64 60 60 69 68 65 65 64 66 66 71 75 78 74 79 77 73 61 54 63 41 12 13 7 327 317 315 289 282 287 288 286 278 267 279 293 295
65 65 64 66 72 74 73 70 70 75 78 79 75 72 72 69 69 68 70 74 81 87 102 92 60 45 21 16 20 8 351 9 12 348 319 304 294 284 283 251 212 235 267
85 83 80 79 82 85 84 82 85 87 88 86 85 84 81 78 68 59 52 46 33 40 46 64 66 30 6 357 357 351 325 337 330 306 298 297 296 290 289 286 224 208 230
115 106 103 103 106 108 106 106 109 110 104 102 96 83 70 72 72 56 47 40 29 29 35 48 33 2 341 330 324 315 319 324 311 299 302 304 305 300 290 284 281 271 257
134 125 125 123 117 120 120 118 106 95 94 93 95 95 79 80 74 52 35 24 17 21 19 3 339 329 329 329 327 323 326 320 310 311 306 295 282 274 274 276 273 268 264
145 142 138 127 112 82 60 59 65 49 56 65 75 75 34 33 53 35 10 4 5 6 1 333 321 314 309 295 303 315 301 270 278 268 279 283 287 288 283 276 276 282 282
145 140 130 123 118 99 76 63 81 65 70 77 68 53 49 29 24 17 11 8 359 335 338 329 316 311 314 315 311 306 309 312 312 293 289 295 299 296 293 295 285 286 281
152 156 155 150 138 136 131 101 82 107 81 70 63 48 18 4 353 350 342 336 330 326 332 319 312 323 331 328 321 314 310 306 296 289 290 293 295 295 296 295 288 285 284
163 163 159 158 158 158 152 155 172 173 162 130 69 7 342 329 328 326 325 325 318 311 309 303 307 308 301 298 294 291 289 287 284 280 279 282 284 287 289 290 289 286 284
158 160 159 164 165 165 162 163 168 198 255 254 221 234 287 306 305 304 311 321 317 311 275 279 285 288 287 286 285 285 286 289 287 282 279 280 282 283 284 283 282 281 284
155 160 166 161 157 153 150 152 177 229 266 278 267 255 253 288 298 290 287 273 284 294 293 285 277 277 276 276 276 277 278 280 280 278 276 275 275 275 277 278 278 281 283
163 167 162 156 157 156 159 177 206 234 258 272 276 269 287 310 294 289 269 252 262 271 275 276 275 273 271 270 272 274 277 278 279 277 277 276 275 275 277 278 279 280 280
157 165 166 158 169 173 177 194 210 226 252 266 269 271 278 274 283 285 281 272 267 268 270 271 271 273 271 270 269 270 274 277 276 276 276 275 274 275 275 275 276 277 279
159 163 169 174 172 174 184 195 207 229 253 265 267 281 290 273 266 272 270 272 270 267 262 264 267 265 263 264 267 272 275 277 277 275 275 275 276 277 279 278 278 278 279
160 164 170 173 172 190 195 198 213 232 247 256 261 262 267 261 263 268 270 270 272 271 272 269 269 273 272 270 265 261 270 274 274 274 277 280 279 279 278 278 278 279 278
168 169 173 175 176 184 195 208 217 229 239 248 255 259 259 261 267 274 276 275 273 270 274 273 272 272 275 280 279 273 269 271 272 272 267 269 272 274 274 274 275 275 276
174 174 177 180 184 192 201 210 218 228 238 246 250 256 264 269 271 273 274 273 276 275 278 281 280 279 279 279 280 281 282 283 284 281 274 270 269 268 270 272 274 277 278
179 179 180 181 186 193 200 210 219 224 231 241 248 253 259 263 267 270 273 274 277 278 281 286 283 283 285 287 287 288 291 293 293 292 290 282 277 276 276 277 279 280 283
Height
1477 1476 1475 1474 1473 1472 1471 1470 1469 1468 1468 1467 1467 1467 1467 1467 1467 1468 1468 1468 1469 1469 1469 1470 1470 1470 1470 1470 1471 1471 1473 1475 1476 1478 1481 1482 1484 1486 1487 1489 1490 1489 1489
1474 1473 1472 1470 1469 1468 1467 1466 1465 1464 1464 1463 1463 1462 1462 1462 1462 1463 1463 1463 1463 1463 1464 1464 1464 1464 1464 1464 1465 1466 1468 1470 1473 1474 1476 1478 1480 1481 1482 1482 1483 1482 1482
1472 1470 1469 1467 1466 1465 1464 1463 1462 1461 1461 1460 1459 1459 1459 1459 1458 1458 1459 1459 1459 1459 1459 1458 1459 1459 1459 1460 1462 1464 1466 1468 1469 1471 1472 1474 1475 1476 1476 1476 1476 1476 1475
1469 1468 1466 1465 1464 1463 1462 1461 1460 1459 1459 1458 1457 1457 1456 1456 1456 1455 1455 1455 1454 1454 1454 1454 1455 1456 1457 1458 1460 1462 1464 1465 1466 1468 1469 1469 1470 1470 1470 1470 1470 1470 1469
1468 1466 1465 1464 1462 1461 1460 1459 1459 1458 1457 1457 1456 1455 1455 1454 1453 1453 1452 1452 1452 1452 1452 1453 1454 1455 1457 1458 1460 1461 1463 1463 1463 1464 1465 1465 1465 1465 1466 1465 1465 1464 1463
1466 1465 1464 1463 1462 1461 1460 1459 1458 1457 1457 1456 1455 1454 1454 1453 1452 1452 1451 1451 1451 1452 1452 1454 1455 1456 1458 1459 1459 1460 1461 1461 1460 1461 1461 1461 1462 1462 1462 1462 1461 1459 1457
1466 1465 1463 1462 1461 1460 1460 1459 1459 1458 1457 1457 1456 1455 1454 1454 1454 1453 1453 1453 1453 1454 1454 1455 1456 1457 1457 1458 1458 1458 1458 1457 1458 1458 1458 1458 1458 1458 1458 1457 1456 1455 1453
1466 1465 1464 1463 1462 1461 1461 1460 1460 1460 1459 1459 1458 1458 1457 1457 1456 1456 1455 1455 1455 1455 1456 1456 1456 1456 1456 1455 1455 1455 1455 1455 1454 1454 1455 1454 1454 1454 1453 1453 1451 1450 1448
1467 1466 1465 1465 1464 1463 1463 1462 1462 1462 1462 1461 1461 1460 1460 1459 1458 1458 1457 1457 1456 1456 1456 1455 1455 1454 1454 1453 1453 1453 1452 1452 1452 1452 1451 1451 1450 1450 1449 1449 1447 1446 1443
1469 1468 1468 1467 1466 1466 1465 1465 1465 1465 1464 1464 1463 1463 1462 1461 1460 1459 1458 1457 1457 1456 1455 1454 1453 1453 1452 1452 1451 1451 1450 1450 1449 1448 1448 1448 1447 1447 1446 1446 1444 1443 1440
1471 1471 1470 1470 1469 1468 1468 1467 1467 1467 1466 1466 1465 1464 1463 1462 1461 1460 1459 1457 1456 1455 1454 1453 1452 1451 1450 1449 1449 1448 1448 1447 1446 1446 1445 1445 1444 1444 1443 1442 1441 1440 1437
1472 1472 1472 1471 1471 1470 1470 1469 1469 1468 1468 1467 1466 1465 1464 1462 1461 1459 1458 1457 1455 1454 1453 1451 1450 1449 1448 1447 1446 1446 1445 1444 1444 1443 1443 1442 1442 1441 1440 1439 1438 1436 1433
1473 1473 1473 1472 1472 1472 1471 1471 1470 1470 1469 1468 1466 1465 1463 1462 1460 1459 1457 1455 1454 1452 1451 1450 1448 1447 1446 1445 1444 1444 1443 1442 1442 1441 1441 1440 1439 1438 1436 1434 1432 1430 1427
1472 1473 1473 1473 1473 1472 1472 1471 1471 1470 1469 1468 1466 1464 1463 1461 1459 1457 1455 1454 1452 1451 1449 1448 1447 1446 1445 1444 1443 1442 1441 1440 1440 1439 1438 1437 1435 1434 1432 1429 1426 1423 1420
1472 1472 1472 1472 1472 1472 1472 1471 1471 1470 1469 1467 1465 1464 1461 1459 1458 1456 1454 1452 1450 1449 1447 1446 1445 1444 1443 1442 1441 1440 1439 1438 1437 1436 1434 1433 1431 1429 1426 1424 1421 1418 1414
1470 1470 1471 1471 1471 1471 1471 1470 1470 1469 1467 1466 1464 1462 1459 1458 1455 1453 1452 1450 1448 1447 1445 1444 1443 1442 1441 1440 1439 1438 1437 1436 1434 1433 1431 1428 1426 1423 1420 1418 1415 1412 1408
1468 1469 1469 1470 1470 1470 1469 1468 1468 1467 1466 1464 1462 1459 1457 1454 1452 1450 1449 1447 1446 1444 1443 1442 1441 1440 1439 1438 1436 1435 1434 1432 1431 1429 1426 1424 1421 1418 1415 1412 1409 1405 1401
1466 1466 1467 1467 1468 1468 1467 1466 1465 1464 1462 1460 1458 1456 1454 1451 1449 1447 1446 1444 1443 1442 1441 1440 1439 1438 1436 1435 1433 1432 1430 1428 1426 1424 1422 1419 1416 1413 1409 1406 1403 1399 1395
1463 1464 1464 1465 1465 1465 1465 1464 1463 1461 1459 1457 1455 1452 1450 1448 1446 1445 1443 1442 1441 1440 1438 1437 1436 1435 1433 1431 1430 1428 1426 1424 1422 1419 1416 1413 1410 1407 1403 1400 1396 1393 1389
1459 1461 1461 1462 1462 1462 1462 1461 1460 1458 1456 1454 1451 1449 1447 1445 1443 1442 1440 1439 1438 1437 1435 1434 1433 1431 1429 1427 1425 1423 1421 1419 1416 1413 1410 1407 1404 1401 1397 1393 1390 1386 1382
1456 1457 1458 1459 1459 1459 1459 1458 1456 1455 1453 1450 1448 1446 1444 1442 1440 1439 1437 1436 1435 1433 1432 1430 1429 1427 1425 1423 1421 1418 1416 1413 1410 1407 1404 1401 1397 1394 1390 1386 1382 1378 1374
1451 1453 1454 1455 1455 1455 1455 1454 1453 1451 1449 1447 1445 1443 1441 1439 1437 1435 1434 1432 1431 1430 1428 1426 1424 1423 1421 1418 1416 1413 1410 1407 1404 1401 1397 1394 1390 1387 1383 1379 1375 1371 1366
1447 1449 1450 1451 1452 1452 1451 1450 1449 1447 1445 1443 1441 1439 1437 1435 1433 1432 1430 1429 1427 1426 1424 1422 1420 1418 1416 1413 1411 1407 1404 1401 1398 1394 1390 1387 1383 1379 1375 1371 1367 1363 1358
1442 1444 1446 1447 1448 1448 1447 1447 1445 1444 1442 1440 1438 1436 1434 1432 1430 1429 1427 1426 1424 1422 1420 1418 1416 1413 1411 1408 1405 1402 1398 1395 1391 1388 1384 1380 1375 1372 1367 1363 1358 1354 1349
1438 1440 1442 1443 1444 1444 1443 1443 1441 1440 1438 1436 1434 1432 1431 1429 1428 1426 1424 1422 1420 1418 1416 1414 1411 1408 1405 1402 1399 1396 1392 1389 1386 1382 1378 1373 1368 1364 1360 1355 1350 1345 1340
1434 1436 1438 1439 1440 1440 1439 1439 1437 1436 1434 1433 1431 1429 1428 1426 1425 1423 1421 1419 1417 1415 1412 1410 1407 1403 1400 1396 1393 1390 1386 1383 1379 1376 1372 1367 1362 1357 1353 1347 1342 1337 1332